Weather History for Hibbing, MN

Change the Weather History Date:

Saturday, February 8, 2014

  Actual Average Record
Temperature  
Mean Temperature -6 °F -  
Max Temperature 10 °F 20 °F 49 °F (1991)
Min Temperature -23 °F -4 °F -30 °F (1988)
Degree Days  
Heating Degree Days 72    
Moisture  
Dew Point -14 °F    
Average Humidity 65    
Maximum Humidity 77    
Minimum Humidity 48    
Precipitation  
Precipitation 0.00 in - - ()
Sea Level Pressure  
Sea Level Pressure 30.19 in    
Wind  
Wind Speed 3 mph (NNW)    
Max Wind Speed 12 mph    
Max Gust Speed -    
Visibility 10 miles    
Events      
Averages and records for this station are not official NWS values.
T = Trace of Precipitation, MM = Missing Value Source: NWS Daily Summary

Daily Weather History Graph

Daily Weather History Graph

Search for Another Location

Airport:

Trip Planner

Search our weather history database for the weather conditions in past years. The results will help you decide how hot, cold, wet, or windy it might be!

Date:

Astronomy

Feb. 08, 2014 Rise Set
Actual Time 7:27 AM CST 5:24 PM CST
Civil Twilight 6:55 AM CST 5:56 PM CST
Nautical Twilight 6:19 AM CST 6:32 PM CST
Astronomical Twilight 5:43 AM CST 7:08 PM CST
Moon 12:12 PM CST (2/8) 2:46 AM CST (2/8)
Length of Visible Light 11h 01m
Length of Day
9h 56m
Waxing Gibbous, 69% of the Moon is Illuminated
Feb 8
Waxing Gibbous
Feb 14
Full
Feb 22
Last Quarter
Mar 1
New
Mar 8
First Quarter

Hourly Weather History & Observations

Time (CST) Temp. Windchill Dew Point Humidity Pressure Visibility Wind Dir Wind Speed Gust Speed Precip Events Conditions
12:53 AM -17.0 °F - -23.1 °F 74% 30.16 in 10.0 mi Calm Calm - N/A   Clear
1:53 AM -18.9 °F - -25.1 °F 74% 30.18 in 10.0 mi Calm Calm - N/A   Clear
2:53 AM -18.9 °F - -25.1 °F 74% 30.17 in 10.0 mi Calm Calm - N/A   Clear
3:53 AM -20.9 °F -31.7 °F -26.0 °F 77% 30.17 in 10.0 mi NNW 3.5 mph - N/A   Scattered Clouds
4:53 AM -20.9 °F - -27.0 °F 73% 30.17 in 10.0 mi Calm Calm - N/A   Clear
5:53 AM -23.1 °F -34.2 °F -29.0 °F 74% 30.17 in 10.0 mi NNW 3.5 mph - N/A   Clear
6:53 AM -22.0 °F - -29.0 °F 70% 30.18 in 10.0 mi Calm Calm - N/A   Clear
7:53 AM -23.1 °F - -29.0 °F 74% 30.20 in 10.0 mi Calm Calm - N/A   Partly Cloudy
8:53 AM -18.0 °F - -26.0 °F 67% 30.19 in 9.0 mi Calm Calm - N/A   Scattered Clouds
9:53 AM -6.0 °F - -13.0 °F 72% 30.19 in 10.0 mi Calm Calm - 0.00 in   Clear
10:53 AM -2.0 °F -10.1 °F -9.9 °F 69% 30.19 in 10.0 mi NNW 3.5 mph - 0.00 in   Clear
11:53 AM 5.0 °F -4.1 °F -6.0 °F 61% 30.17 in 10.0 mi NNW 4.6 mph - N/A   Clear
12:53 PM 10.0 °F 0.4 °F -6.0 °F 48% 30.15 in 10.0 mi North 5.8 mph - N/A   Overcast
1:53 PM 10.0 °F -2.9 °F -4.0 °F 53% 30.14 in 10.0 mi NNW 9.2 mph - N/A   Mostly Cloudy
2:53 PM 10.9 °F 0.2 °F -2.9 °F 54% 30.15 in 10.0 mi NW 6.9 mph - N/A   Overcast
3:53 PM 10.9 °F 0.2 °F -4.0 °F 51% 30.16 in 10.0 mi NNW 6.9 mph - N/A   Overcast
4:53 PM 8.1 °F -0.5 °F -5.1 °F 55% 30.17 in 10.0 mi NNW 4.6 mph - N/A   Overcast
5:53 PM 9.0 °F -3.2 °F -5.1 °F 53% 30.19 in 10.0 mi North 8.1 mph - N/A   Scattered Clouds
6:53 PM 7.0 °F -6.6 °F -2.9 °F 64% 30.20 in 10.0 mi NNW 9.2 mph - N/A   Clear
7:53 PM 5.0 °F -10.8 °F -5.1 °F 63% 30.22 in 10.0 mi North 11.5 mph - N/A   Clear
8:53 PM 3.0 °F -12.5 °F -8.0 °F 60% 30.23 in 10.0 mi NNW 10.4 mph - N/A   Clear
9:53 PM -0.0 °F -16.3 °F -9.9 °F 63% 30.24 in 10.0 mi NNW 10.4 mph - N/A   Clear
10:53 PM -0.0 °F -16.3 °F -11.0 °F 60% 30.25 in 10.0 mi NNW 10.4 mph - N/A   Overcast
11:53 PM -4.0 °F -20.2 °F -13.0 °F 65% 30.23 in 10.0 mi NNW 9.2 mph - N/A   Clear